STARLINK-5165, 54081

Orbit data source: Space-Track

STARLINK-5165, 54081 is a payload satellite owned by SpaceX/Seattle (US) in LEO that was launched on Thu, 20 Oct 2022 UTC via an FALCON 9 launch vehicle from the Air Force Eastern Test Range (AFETR). Payload-class satellites include a variety of spacecraft equipped with specific instruments for various scientific and technological missions. These include communications satellites like Starlink; space stations such as the ISS; scientific satellites like the Hubble; Earth observation satellites from companies like Planet Labs, Umbra, and HawkEye 360; GPS; miniature CubeSats for education and research; and military/defense satellites.

Loading next visibility...
Identifier
54081, 2022-136AG
Orbit
LEO
Country
Flag of USUS
Related business
Manufacturer
SpaceX/Seattle
Mission
Partially operational Commercial Communications
Bus & Motor
STARLINK, Unknown motor
Mass
305 kg wet, ~290 kg dry
Launch date (UTC)
2022-10-20 (3 years ago)
Launch vehicle
FALCON 9
Launch site
Air Force Eastern Test Range (AFETR)
Object type
Payload
Rocket body
Debris
Shape & HBR
Box + 1 Pan, 4.4 m
Radar Cross Section
13.562 m², Large (>1 m²)

Expand to show TLE details & history
Last TLE update: 3 hours ago

TLE from 3 hours ago
0 STARLINK-5165
1 54081U 22136AG  25261.38246985  .02219309  00000-0  16108-1 0  9996
2 54081  53.2136  21.1453 0000966 102.6833 257.4294 15.69923437161066
Epoch: 2025-09-18T09:10Z
TLE epoch observation values (Epoch: 2025-09-18T09:10:45.395Z)
Latitude
0.00002°
Longitude
-114.0887°
Altitude
360.179 km
Speed
7.694 km/s
True Right ascension
01h 24m 34s
True Declination
0° 00' 00"
Sunlit
Object was in full shadow at epoch
Visualization orbit readout
Latitude
Unknown
Longitude
Unknown
Altitude
Unknown
Speed
Unknown
Apparent Right ascension
Unknown
Apparent Declination
Unknown
Sunlit
N/A
Visualization observer readout
Local Sidereal Time
05:02:36
Azimuth
Unknown
Elevation
Unknown
Doppler factor
Unknown
Orbital elements
Apogee altitude
360.019 km
Perigee altitude
358.717 km
Semi-major axis
6,737.505 km
Eccentricity
0.0001
Inclination
53.2136°
RAAN
21.1453°
Arg. of periapsis
102.6833°
True anomaly
257.4186°
Mean anomaly
257.4294°
Eccentric anomaly
257.424°
Mean motion
3.92459 °/min
Orbital period
91.73 mins
BSTAR
0.016108
Loading maneuver chart data...
Computing Atmospheric mass density...
Loading historical data...
Loading historical data...
Loading historical data...
Loading historical data...
Loading historical data...
Loading historical data...
Loading historical data...

Documentation

Showing up to 5 results
|